This demonstration page uses our WeatherBlox Daily Observations layout. Learn more.

Left ArrowRight Arrow

40.92945, -100.16068

Hourly Observations for October 17, 2016

Temp ( °F °C ) Dew Point ( °F °C ) Humidity (%) Winds ( mph kmh ) Pressure ( in mb ) Visibility ( mi km ) Precip ( " mm )
12:15 am 00:15 Clear 57 14 45 7.1 63 63 NNE 6 9 29.59 1002 10 16 N/A
12:35 am 00:35 Clear 56 13.5 44 6.5 63 63 NE 6 9 29.59 1002 10 16 N/A
12:55 am 00:55 Clear 56 13.5 44 6.6 63 63 NNE 6 9 29.59 1002 10 16 N/A
1:15 am 01:15 Clear 53 11.4 44 6.4 72 72 NNE 3 6 29.62 1003 10 16 N/A
1:35 am 01:35 Clear 53 11.8 44 6.5 70 70 NNE 3 6 29.59 1002 10 16 N/A
1:55 am 01:55 Clear 51 10.7 42 5.6 71 71 NNW 3 6 29.56 1001 10 16 N/A
2:15 am 02:15 Clear 47 8.3 41 5 80 80 NW 6 9 29.59 1002 10 16 N/A
2:35 am 02:35 Clear 46 7.7 41 4.8 82 82 NW 6 9 29.59 1002 10 16 N/A
2:55 am 02:55 Clear 46 7.7 41 5 83 83 WNW 6 9 29.56 1001 10 16 N/A
3:15 am 03:15 Clear 45 7.4 41 4.9 84 84 WNW 8 13 29.56 1001 10 16 N/A
3:35 am 03:35 Clear 45 7 41 4.8 86 86 WNW 3 6 29.56 1001 10 16 N/A
3:55 am 03:55 Clear 45 7.2 41 4.8 85 85 NW 7 11 29.53 1000 10 16 N/A
4:15 am 04:15 Clear 45 7.1 40 4.6 84 84 WNW 8 13 29.53 1000 10 16 N/A
4:35 am 04:35 Clear 46 7.5 40 4.6 82 82 NNW 3 6 29.53 1000 10 16 N/A
4:55 am 04:55 Clear 44 6.6 40 4.2 85 85 SSW 6 9 29.53 1000 10 16 N/A
5:15 am 05:15 Clear 44 6.8 40 4.2 84 84 W 7 11 29.53 1000 10 16 N/A
5:35 am 05:35 Clear 44 6.9 40 4.2 83 83 WNW 7 11 29.53 1000 10 16 N/A
5:55 am 05:55 Clear 44 6.7 40 4.2 84 84 WNW 7 11 29.53 1000 10 16 N/A
6:15 am 06:15 Clear 45 7.4 39 4.1 80 80 WNW 8 13 29.53 1000 10 16 N/A
6:35 am 06:35 Clear 46 7.8 39 4 77 77 W 10 17 29.50 999 10 16 N/A
6:55 am 06:55 Clear 46 7.5 39 3.8 78 78 N 8 13 29.50 999 10 16 N/A
7:15 am 07:15 Clear 44 6.6 38 3.5 81 81 WNW 8 13 29.50 999 10 16 N/A
7:35 am 07:35 Clear 44 6.5 38 3.5 81 81 WNW 6 9 29.47 998 10 16 N/A
7:55 am 07:55 Sunny 43 6.1 38 3.5 84 84 WNW 6 9 29.47 998 10 16 N/A
8:15 am 08:15 Sunny 43 6.2 38 3.6 84 84 WNW 8 13 29.47 998 10 16 N/A
8:35 am 08:35 Sunny 44 6.7 39 3.8 82 82 WNW 7 11 29.47 998 10 16 N/A
8:55 am 08:55 Sunny 46 7.5 40 4.4 81 81 WNW 7 11 29.47 998 10 16 N/A
9:15 am 09:15 Sunny 48 8.7 41 4.8 77 77 WNW 7 11 29.44 997 10 16 N/A
9:35 am 09:35 Sunny 49 9.7 42 5.5 75 75 WNW 6 9 29.44 997 10 16 N/A
9:55 am 09:55 Sunny 52 11 42 5.5 69 69 WNW 6 9 29.44 997 10 16 N/A
10:15 am 10:15 Sunny 55 12.6 42 5.5 62 62 WNW 7 11 29.41 996 10 16 N/A
10:35 am 10:35 Sunny 57 14.1 41 5.2 55 55 NW 10 17 29.41 996 10 16 N/A
10:55 am 10:55 Sunny 60 15.6 43 6.2 54 54 W 7 11 29.38 995 10 16 N/A
11:15 am 11:15 Sunny 62 16.4 44 6.4 52 52 W 5 7 29.38 995 10 16 N/A
11:35 am 11:35 Sunny 64 17.5 42 5.8 46 46 WSW 3 6 29.38 995 10 16 N/A
11:55 am 11:55 Sunny 66 18.7 42 5.6 42 42 N N/A 29.32 993 10 16 N/A
12:15 pm 12:15 Sunny 67 19.5 41 5.1 39 39 N N/A 29.32 993 10 16 N/A
12:35 pm 12:35 Sunny 69 20.5 43 6 39 39 W 3 6 29.32 993 10 16 N/A
12:55 pm 12:55 Sunny 70 21.3 44 6.9 39 39 W 7 11 29.29 992 10 16 N/A
1:15 pm 13:15 Sunny 72 22.4 44 6.8 37 37 W 7 11 29.29 992 10 16 N/A
1:35 pm 13:35 Sunny 73 22.9 42 5.4 32 32 W 6 9 29.29 992 10 16 N/A
1:55 pm 13:55 Sunny 75 24.1 42 5.8 31 31 W 6 9 29.29 992 10 16 N/A
2:15 pm 14:15 Sunny 77 25.2 43 5.9 29 29 W 7 11 29.26 991 10 16 N/A
2:35 pm 14:35 Sunny 79 25.9 42 5.8 28 28 WNW 12 19 29.26 991 10 16 N/A
2:55 pm 14:55 Sunny 79 26.3 41 5 26 26 NW 16 26 29.26 991 10 16 N/A
3:15 pm 15:15 Sunny 79 26.2 35 1.8 20 20 WNW 24 39 29.29 992 10 16 N/A
3:35 pm 15:35 Sunny 80 26.5 36 2.2 21 21 WNW 21 33 29.29 992 10 16 N/A
3:55 pm 15:55 Sunny 79 26.3 34 1.3 20 20 WNW 20 31 29.29 992 10 16 N/A
4:15 pm 16:15 Sunny 80 26.5 34 1.3 19 19 NW 15 24 29.29 992 10 16 N/A
4:35 pm 16:35 Sunny 81 27 35 1.9 20 20 NW 13 20 29.29 992 10 16 N/A
4:55 pm 16:55 Sunny 82 27.5 37 2.6 20 20 WNW 16 26 29.32 993 10 16 N/A
5:15 pm 17:15 Sunny 81 27.3 35 1.8 19 19 WNW 21 33 29.32 993 10 16 N/A
5:35 pm 17:35 Sunny 81 27 33 0.7 18 18 WNW 20 31 29.35 994 10 16 N/A
5:55 pm 17:55 Sunny 79 26.1 34 1.2 20 20 WNW 22 35 29.35 994 10 16 N/A
6:15 pm 18:15 Sunny 76 24.7 35 1.7 22 22 WNW 35 56 29.41 996 10 16 N/A
6:35 pm 18:35 Sunny 73 22.5 35 1.5 25 25 WNW 24 39 29.47 998 7 11 N/A
6:55 pm 18:55 Sunny 71 21.5 36 2 28 28 WNW 15 24 29.50 999 10 16 N/A
7:15 pm 19:15 Clear 68 19.9 36 2.4 31 31 WNW 12 19 29.50 999 10 16 N/A
7:35 pm 19:35 Clear 65 18.5 37 2.5 35 35 W 9 15 29.56 1001 10 16 N/A
7:55 pm 19:55 Clear 63 17 37 2.6 38 38 W 9 15 29.56 1001 10 16 N/A
8:15 pm 20:15 Clear 60 15.8 37 2.6 41 41 W 5 7 29.59 1002 10 16 N/A
8:35 pm 20:35 Clear 57 14 37 2.5 46 46 W 9 15 29.62 1003 10 16 N/A
8:55 pm 20:55 Clear 58 14.4 35 1.9 43 43 WNW 20 31 29.62 1003 10 16 N/A
9:15 pm 21:15 Clear 64 17.6 32 -0.2 30 30 WNW 16 26 29.62 1003 10 16 N/A
9:35 pm 21:35 Clear 62 16.4 31 -0.7 31 31 WNW 10 17 29.65 1004 10 16 N/A
9:55 pm 21:55 Clear 59 15.2 31 -0.8 34 34 WNW 9 15 29.65 1004 10 16 N/A
10:15 pm 22:15 Clear 55 12.9 32 -0.2 41 41 WNW 8 13 29.68 1005 10 16 N/A
10:35 pm 22:35 Clear 55 13 32 -0.1 41 41 WNW 7 11 29.68 1005 10 16 N/A
10:55 pm 22:55 Clear 53 11.7 32 0.1 45 45 WNW 8 13 29.68 1005 10 16 N/A
11:15 pm 23:15 Clear 51 10.7 33 0.5 50 50 WNW 8 13 29.71 1006 10 16 N/A
11:35 pm 23:35 Clear 50 10 33 0.5 52 52 WNW 6 9 29.74 1007 10 16 N/A
11:55 pm 23:55 Clear 48 9 34 0.9 57 57 WNW 8 13 29.74 1007 10 16 N/A

Powered by AerisWeather